This is the latest recevied weather packets stored in our database for station/object K4KMJ. If no packets are shown the sender has not sent any weather packets the latest 10 day(s).
| Time | Temp. | Humidity | Pressure | Rain* | Wind** | Luminosity | Snow |
|---|---|---|---|---|---|---|---|
| 1777915233 | 24.44° C | 63% | 1019.2 hPa | 0 mm | - | 263 W/m² | - |
| 1777914930 | 24.44° C | 62% | 1019.3 hPa | 0 mm | - | 237 W/m² | - |
| 1777914627 | 25.56° C | 61% | 1019.2 hPa | 0 mm | - | 290 W/m² | - |
| 1777914322 | 25° C | 62% | 1019.1 hPa | 0 mm | - | 969 W/m² | - |
| 1777914020 | 25° C | 63% | 1019.3 hPa | 0 mm | - | 1029 W/m² | - |
| 1777913715 | 24.44° C | 63% | 1019.2 hPa | 0 mm | - | 228 W/m² | - |
| 1777913412 | 25° C | 62% | 1019.6 hPa | 0 mm | - | 268 W/m² | - |
| 1777913109 | 24.44° C | 63% | 1019.5 hPa | 0 mm | - | 1052 W/m² | - |
| 1777912805 | 25° C | 61% | 1019.3 hPa | 0 mm | - | 212 W/m² | - |
| 1777912501 | 25.56° C | 61% | 1019.4 hPa | 0 mm | - | 1011 W/m² | - |
| 1777912199 | 25.56° C | 61% | 1019.4 hPa | 0 mm | - | 1099 W/m² | - |
| 1777911894 | 25° C | 60% | 1019.3 hPa | 0 mm | - | 1016 W/m² | - |
| 1777911585 | 25.56° C | 59% | 1019.5 hPa | 0 mm | - | 945 W/m² | - |
| 1777911281 | 25.56° C | 61% | 1019.4 hPa | 0 mm | - | 954 W/m² | - |
| 1777910978 | 25° C | 61% | 1019.2 hPa | 0 mm | - | 955 W/m² | - |
| 1777910677 | 25° C | 60% | 1019.6 hPa | 0 mm | - | 1044 W/m² | - |
| 1777910373 | 26.11° C | 61% | 1019.7 hPa | 0 mm | - | 968 W/m² | - |
| 1777910070 | 25° C | 61% | 1019.6 hPa | 0 mm | - | 992 W/m² | - |
| 1777909767 | 25° C | 61% | 1019.7 hPa | 0 mm | - | 621 W/m² | - |
| 1777909464 | 25° C | 63% | 1019.6 hPa | 0 mm | - | 948 W/m² | - |
| 1777909162 | 25° C | 62% | 1019.6 hPa | 0 mm | - | 216 W/m² | - |
| 1777908860 | 25° C | 61% | 1019.6 hPa | 0 mm | - | 936 W/m² | - |
| 1777908556 | 25° C | 61% | 1019.8 hPa | 0 mm | - | 208 W/m² | - |
| 1777908253 | 25.56° C | 62% | 1019.9 hPa | 0 mm | - | 896 W/m² | - |
| 1777907950 | 24.44° C | 62% | 1019.9 hPa | 0 mm | - | 843 W/m² | - |
* Rain latest hour (hover to see other rain measurements)
** Current wind speed in m/s (hover to see current wind gust speed)